Home   Weather   Aspen   Past weeks

Flag for USA Past Weather in Aspen, Colorado, USA — Yesterday and Last 2 Weeks

Now
58 °F

Clear.


Feels Like: 56 °F
Forecast: 49 / 74 °F
Wind: 9 mph from Southwest

Location: Aspen-Pitkin County Airport

Current Time: Aug 31, 2016 at 9:50:39 PM

Latest Report: Aug 31, 2016 at 8:53 PM


Visibility: 10 mi

Pressure: 30.02 "Hg (22.54 "Hg at 2411m altitude)

Humidity: 56%

Dew Point: 42 °F

Location of AspenLocation

Past Weather in Aspen — Graph

°F

Aspen Temperature Yesterday

Maximum temperature yesterday: 76 °F (at 2:53 PM)
Minimum temperature yesterday: 40 °F (at 4:53 AM)
Average temperature yesterday: 56 °F

High & Low Weather Summary for the Past Weeks

 TemperatureHumidityPressure
High81 °F (Aug 21, 2:53 PM)97% (Aug 24, 6:53 AM)30.43 "Hg (Aug 24, 6:53 AM)
Low40 °F (Aug 26, 4:53 AM)12% (Aug 21, 12:53 PM)29.77 "Hg (Aug 22, 1:53 PM)
Average57 °F58%30.01 "Hg
* Reported Aug 16 8:53 PM — Aug 31 8:53 PM, Aspen, Weather by CustomWeather, © 2016

Note: Actual official high and low records may vary slightly from our data, if they occured in-between our weather recording intervals... More about our weather records

Advertising

Aspen Weather History for the Previous 24 Hours

Scroll right to see more
 ConditionsComfort  
Time TempWeatherWind HumidityBarometerVisibility
8:53 PM
Wed, Aug 31
58 °FClear.9 mph56%30.02 "Hg10 mi
7:53 PM63 °FSunny.8 mph50%30.00 "Hg10 mi
6:53 PM73 °FPassing clouds.7 mph26%29.96 "Hg10 mi
5:53 PM77 °FSunny.6 mph21%29.94 "Hg10 mi
4:53 PM79 °FSunny.8 mph18%29.93 "Hg10 mi
3:53 PM79 °FScattered clouds.N/A20%29.94 "Hg10 mi
2:53 PM78 °FScattered clouds.6 mph19%29.97 "Hg10 mi
1:53 PM78 °FScattered clouds.10 mph18%29.99 "Hg10 mi
12:53 PM75 °FScattered clouds.9 mph25%30.02 "Hg10 mi
11:53 AM73 °FScattered clouds.7 mph33%30.04 "Hg10 mi
10:53 AM68 °FPassing clouds.7 mph44%30.06 "Hg10 mi
9:53 AM63 °FPassing clouds.3 mph48%30.07 "Hg10 mi
8:53 AM57 °FSunny.3 mph58%30.08 "Hg10 mi
7:53 AM49 °FSunny.No wind74%30.12 "Hg10 mi
6:53 AM44 °FClear.5 mph85%30.15 "Hg10 mi
5:53 AM44 °FClear.No wind85%30.13 "Hg10 mi
4:53 AM46 °FClear.No wind79%30.07 "Hg10 mi
3:53 AM47 °FClear.No wind77%30.08 "Hg10 mi
2:53 AM47 °FClear.6 mph80%30.06 "Hg10 mi
1:53 AM48 °FClear.3 mph77%30.07 "Hg10 mi
12:53 AM49 °FClear.No wind77%30.10 "Hg10 mi
11:53 PM
Tue, Aug 30
51 °FClear.8 mph71%30.09 "Hg10 mi
10:53 PM54 °FClear.6 mph67%30.09 "Hg10 mi
9:53 PM57 °FClear.8 mph60%30.09 "Hg10 mi
Weather by CustomWeather, © 2016

See weather overviewHow to use our weather pages